User: anonymous   Login
Location: Unspecified
(0.0000°N, 0.0000°E)
Time: 01:19:46
(UTC+02:00)
Language:

BREEZE-M DEB (TANK) - Orbit

View from above orbital plane
View from above orbital plane
View from above satellite
View from above satellite

Ground track
Ground track

The orbit data is extracted from the following two-line orbital elements,

1 33374U 08044B   15212.64708270  .00000705  00000-0  30732-3 0  9991
2 33374 049.4841 044.8597 5426218 033.2256 014.0278 04.85821906120602
Epoch (UTC): 31 July 2015 15:31:47
Eccentricity: 0.5426218
inclination: 49.4841°
perigee height: 357 km
apogee height: 16338 km
right ascension of ascending node: 44.8597°
argument of perigee: 33.2256°
revolutions per day: 4.85821906
mean anomaly at epoch: 14.0278°
orbit number at epoch: 12060

The dashed part of the orbit path shows where the satellite is in the earth's shadow,  

DLR